Lid_Strength_Index
3 5 7 6 11 12 14 12 12 11 10 9 8 8 9 8 10 12 3 2 0 0 -0 -0 -1 -1 -1 -1 -1 -1 -1 -1 -1 -1 -1 -1 -1 -1 -1 -1 -1 -2 -1 -1 -1 -1 -2 -1 -1
4 5 6 8 12 15 14 11 11 9 8 7 7 7 8 10 6 5 4 1 0 -0 -0 -0 -0 -1 -1 -1 -1 -1 -1 -1 -1 -1 -1 -1 -1 -1 -1 -1 -1 -2 -1 -1 -1 -2 -2 -2 -1
7 5 8 10 13 15 14 12 10 9 9 9 8 6 8 8 5 4 2 1 0 0 -0 -0 -0 -1 -1 -1 -1 -1 -1 -1 -1 -1 -1 -1 -1 -1 -1 -1 -2 -2 -2 -1 -1 -2 -2 -3 -2
8 6 9 12 14 11 12 10 9 9 9 8 7 10 6 6 4 3 1 0 1 0 -0 -0 -1 -1 -1 -1 -1 -1 -1 -1 -2 -1 -1 -1 -1 -1 -1 -1 -1 -2 -2 -2 -2 -2 -3 -2 -2
6 8 12 14 13 12 10 9 9 9 9 9 8 10 8 8 3 2 2 1 1 1 -0 -0 -0 -1 -1 -1 -1 -1 -1 -1 -1 -2 -2 -2 -2 -1 -2 -2 -2 -2 -2 -1 -1 -2 -3 -3 -3
10 11 14 15 14 12 11 9 9 10 10 9 9 8 7 8 6 5 2 2 1 1 0 -0 1 1 -0 -1 -1 -1 -1 -1 -1 -2 -2 -2 -2 -2 -2 -2 -2 -2 -2 -1 -1 -2 -3 -3 -3
11 14 15 15 14 13 10 9 11 11 11 10 9 9 7 9 9 8 2 2 1 0 0 0 -0 0 2 1 0 -0 -1 -1 -1 -1 -1 -1 -1 -2 -2 -2 -2 -2 -2 -2 -2 -2 -3 -3 -2
10 11 14 14 14 13 11 11 10 10 10 8 8 9 9 8 8 8 3 2 2 1 1 1 0 0 0 0 2 1 0 -0 -0 -0 0 0 0 -0 -1 -0 -1 -2 -2 -2 -2 -2 -2 -2 -2
9 13 15 14 14 13 11 12 11 10 11 11 9 9 6 7 7 8 9 4 3 2 2 1 0 -0 0 0 1 2 2 1 1 1 1 2 0 0 0 1 -0 -2 -2 -2 -2 -2 -2 -2 -1
12 15 14 13 13 13 12 13 13 13 13 13 11 9 8 7 8 8 9 8 5 6 4 2 0 -0 -0 -0 -0 -0 -0 -0 -0 -0 0 0 0 1 0 2 1 -0 -0 -1 -2 -2 -1 0 0
12 14 12 13 12 12 13 13 13 14 14 12 13 12 9 9 9 8 8 8 9 9 10 9 6 5 0 0 0 0 -0 0 1 0 0 1 1 1 0 1 1 2 3 1 -0 -0 0 1 1
14 12 13 11 12 12 14 13 14 13 13 12 12 13 10 9 10 10 10 11 10 11 10 10 11 9 9 7 7 7 4 3 1 1 1 1 1 1 1 1 2 2 1 1 1 -0 -0 1 1
14 14 13 13 12 13 13 14 14 14 13 12 12 12 13 10 11 12 11 12 12 12 11 11 10 10 8 8 8 8 8 8 8 5 1 1 2 2 2 2 2 3 3 2 1 1 1 1 1
14 14 14 14 14 14 15 16 15 14 14 13 13 13 13 13 13 13 13 12 12 11 11 10 10 10 9 9 9 9 9 8 8 8 7 4 1 2 1 2 2 2 2 2 1 1 2 1 1
13 16 15 15 15 15 16 17 17 14 13 14 14 14 14 13 13 13 12 12 11 11 10 10 10 10 9 9 9 9 9 8 8 8 8 7 4 1 1 1 0 0 1 2 2 2 1 2 1
16 17 19 16 16 16 17 18 15 14 15 15 14 14 14 13 12 12 12 11 12 11 10 10 9 10 9 10 10 9 9 9 8 8 7 7 6 6 3 1 0 1 1 1 1 2 2 2 1
17 20 19 17 16 17 18 18 15 15 15 15 15 14 14 14 13 13 12 12 12 11 11 10 9 10 9 9 9 9 9 9 9 8 8 7 6 6 6 3 1 1 1 2 1 1 1 1 1
19 19 18 19 17 17 18 17 14 14 14 14 14 14 15 14 14 13 13 13 12 12 11 10 10 10 10 10 10 10 9 9 9 9 8 7 7 6 6 5 4 2 1 1 1 1 1 1 1
17 19 19 18 16 17 18 17 15 14 15 16 15 15 15 15 14 14 13 13 12 12 12 12 12 12 12 12 11 10 10 9 9 8 7 7 6 6 6 5 5 4 2 2 1 1 2 2 3
18 19 19 17 16 17 18 17 14 14 15 15 15 16 15 15 14 13 13 13 12 13 13 12 12 12 12 12 12 11 11 11 10 9 9 8 8 7 7 7 6 5 4 3 2 1 2 2 3
18 19 19 19 18 17 19 18 16 15 15 15 15 15 15 14 14 13 13 13 14 13 13 12 12 11 12 12 11 12 12 12 12 11 10 9 8 8 8 8 8 7 6 6 4 2 2 3 3
19 18 18 18 21 23 19 22 18 16 15 15 15 16 15 14 14 13 13 14 14 13 13 12 11 11 11 12 12 13 13 13 12 12 11 10 9 8 8 8 8 8 7 7 6 4 3 3 4
19 17 18 18 21 25 23 24 19 16 16 16 16 15 16 15 14 13 13 13 13 12 13 12 12 12 12 12 12 13 13 12 12 11 11 10 9 9 8 8 8 8 8 7 7 7 6 4 4
16 18 18 19 23 27 24 23 20 18 16 15 15 15 14 14 14 14 13 13 13 12 13 13 13 13 12 12 12 12 12 12 12 11 11 11 10 10 9 9 9 9 9 8 8 8 8 7 6
18 20 25 25 25 24 21 24 19 17 16 17 15 15 15 14 14 14 14 13 13 13 13 13 13 13 12 11 11 12 12 12 12 12 12 12 12 11 11 10 10 10 9 9 9 10 9 8 7
19 19 23 27 25 23 21 24 19 16 16 15 14 14 14 14 14 14 14 13 14 14 14 14 13 12 12 12 12 12 12 12 12 12 11 12 12 12 11 11 10 10 10 10 10 10 9 9 8
19 21 18 25 30 26 22 20 16 16 16 15 15 14 14 15 14 15 14 14 13 14 14 12 12 12 12 12 12 12 12 11 12 12 11 11 11 11 11 11 11 10 10 11 10 10 9 8 8
17 17 20 21 25 28 23 22 19 18 17 15 15 14 14 14 14 13 13 13 13 14 12 12 12 12 12 12 12 11 11 11 12 12 12 12 12 12 11 11 11 11 11 11 10 9 8 9 8
19 19 18 17 19 23 25 21 16 17 16 14 14 14 14 13 13 13 13 13 14 13 12 12 13 13 12 12 11 12 13 12 12 12 12 13 12 12 12 11 11 11 11 10 10 9 9 9 9
17 18 17 21 23 22 22 21 14 15 14 12 13 13 12 12 12 13 13 14 14 13 13 13 13 13 12 11 11 12 12 12 13 12 12 12 12 11 11 11 11 11 11 10 10 10 9 10 9